星链-31526 (STARLINK-31526 )

导读

STARLINK-31526是美国太空探索技术公司(SpaceX)星链互联网卫星星座的成员,于2024年2月23日发射入轨。星链项目旨在构建全球卫星互联网,该卫星继承了星链星座的设计特点,为偏远地区、航海航空等场景提供低延迟网络接入服务,进一步扩充了星链星座的服务覆盖能力。

基本信息
目录编号:
59016
目录名称:
STARLINK-31526
国际标识:
2024-036U
轨道中心:
EARTH
卫星名称:
星链-31526
卫星全名:
星链-31526 (STARLINK-31526 )
卫星状态:
在轨 (已飞行846 天)
发射日期:
2024-02-23 UTC
国别 :
美国 (US)
星等 :
--
轨道信息
数据来源 国际轨道数据
星历时间: 2026-06-17T22:31:00+0800
14小时前
查看轨道信息
半长轴: 6848.867km
偏心率: 0.0001272
轨道倾角: 53.162°
近地点辐角 89.720°
升交点赤经 308.212°
平近点角 270.395°
近地点: 469.858km
远地点: 471.602km
周期: 94.013分钟
每日圈数: 15.317035
详细信息
固有亮度:
5
最大亮度:
0.3
卫星平台:
Starlink v2.0 mini
覆盖范围:
全球
运营商:
太空探索技术公司
运营商所在国:
美国
制造商(研发单位):
太空探索技术公司
制造商所在国:
美国
使用方式:
暂无
卫星简介
星链(Starlink)计划是由太空探索技术公司(SpaceX)提出的一个巨型低轨卫星互联网星座项目,计划在2019年至2024年间在太空搭建由约1.2万颗卫星组成的“星链”网络,其中1584颗将部署在地球上空550千米处的近地轨道,并从2020年开始工作。该卫星仍在工作。
2D轨道图
3D轨道图
轨道高度分析图
轨道倾角分析图
轨道综合分析图
查看轨道综合分析图